Regional Weather Roundup
Issued by NWS Jackson, KY

Home | Current Version | Previous Version | Graphics & Text | Print | Product List | Glossary On
Versions: 1 2 3 4 5 6 7 8 9 10 11 12 13 14 15 16 17 18 19 20 21 22 23 24 25 26 27 28 29 30 31 32 33 34 35 36 37 38 39 40 41 42 43 44 45 46 47 48 49 50
000
ASUS43 KJKL 230119
RWRJKL

EAST KENTUCKY HOURLY WEATHER ROUNDUP
NATIONAL WEATHER SERVICE JACKSON KY
900 PM EDT MON SEP 22 2014

NOTE: "FAIR" INDICATES FEW OR NO CLOUDS BELOW 12,000 FEET WITH
NO SIGNIFICANT WEATHER AND/OR OBSTRUCTIONS TO VISIBILITY.

* THESE REPORTS ARE NOT UNDER NWS QUALITY CONTROL AND MAY NOT
  REPORT WEATHER SUCH AS PRECIPITATION AND FOG.

KYZ079-080-083-085-087-088-110-112-115-119-120-230200
...EASTERN KENTUCKY...

CITY           SKY/WX    TMP DP  RH WIND       PRES   REMARKS
JACKSON        CLEAR     58  46  64 N5        30.23R
LONDON         CLEAR     58  47  66 N3        30.23R
SOMERSET*      CLEAR     55  43  62 NE3       30.23R
MONTICELLO*    CLEAR     51  48  89 CALM      30.23R
MIDDLESBORO*   CLEAR     56  52  87 CALM      30.22R
HARLAN APT*    CLEAR     54  48  82 MISG      30.22R
HAZARD APT*    CLEAR     57  50  77 CALM      30.23R
PIKEVILLE APT* CLEAR     55  46  71 NE5       30.23R
BIG SANDY*     CLEAR     55  51  87 CALM      30.22R
MOREHEAD APT*  PTCLDY    57  45  62 N3        30.25R
ASHLAND*       CLEAR     55  45  67 CALM      30.22R
$$

KYZ035-036-041-042-044-050-067-078-099-230200
...CENTRAL KENTUCKY...

CITY           SKY/WX    TMP DP  RH WIND       PRES   REMARKS
MT STERLING*   CLEAR     52  48  87 N3        30.25R
FLEMING/MASON* CLEAR     55  45  67 N5        30.25R
DANVILLE*      CLEAR     52  43  71 N3        30.25R
RICHMOND*      CLEAR     55  45  67 CALM      30.24R
LEXINGTON      CLEAR     57  45  64 N6        30.24R
FRANKFORT      CLEAR     53  47  79 CALM      30.23R
$$

KYZ091>093-OHZ055-061-077-WVZ005-015-034-035-042-230200
...SOUTHERN OHIO/WEST VIRGINIA...

CITY           SKY/WX    TMP DP  RH WIND       PRES   REMARKS
COVINGTON      CLEAR     56  43  61 NW3       30.24R
COLUMBUS       CLEAR     56  42  59 CALM      30.24R
DAYTON         CLEAR     54  42  64 CALM      30.26R
WILMINGTON     CLEAR     55  40  56 N5        30.24R
HUNTINGTON     MOCLDY    54  49  83 CALM      30.21R
CHARLESTON     PTCLDY    53  51  93 SE3       30.22R
PINEVILLE*     CLEAR     50  50 100 MISG      30.29R
BECKLEY        CLEAR     51  43  74 CALM      30.25R
BLUEFIELD      CLOUDY    54  45  71 NW3       30.25R
$$

VAZ002-007-008-TNZ017-027-036-066-071-230200
...SOUTHWEST VIRGINIA/EAST TENNESSEE...

CITY           SKY/WX    TMP DP  RH WIND       PRES   REMARKS
WISE*          CLEAR     52  45  76 N3        30.25R
JONESVILLE*    CLEAR     55  52  88 CALM      30.23R
ABINGDON*      CLEAR     57  49  74 CALM      30.23R
BRISTOL        PTCLDY    56  47  71 CALM      30.20R
KNOXVILLE      CLEAR     63  50  62 N10       30.16R
OAK RIDGE      CLEAR     61  48  62 CALM      30.20R
CROSSVILLE     CLEAR     60  48  64 N5        30.22R
NASHVILLE      CLEAR     64  46  52 NE7       30.19R
$$

...KEY TO REMARKS...
VSB - VISIBILITY IN MILES
WCI - WIND CHILL INDEX
HX  - HEAT INDEX

$$


USA.gov is the U.S. government's official web portal to all federal, state and local government web resources and services.